GSAT0210 (GALILEO 13)

Last updated on Mon Dec 15 2025 00:02:41 GMT+0000 (Coordinated Universal Time)

1 41550U 16030B 25347.69334647 .00000025 00000+0 00000+0 0 9993 2 41550 55.1513 226.7953 0001352 245.9786 114.0887 1.70473753 59508
UTC large
Height (km)
Speed (km/s)
/
Latitude / Longitude
Inclination (degrees)
Orbital Period (minutes)
Azimuth
Elevation
Range (km)
Doppler Factor

Next 0 passes for location: London (51.5072 / 0.1276)

Sorry there are no passes over London.